Flag for Norway Weather past 2 weeks in Haugesund, Norway

Now
59 °F

Broken clouds.


Feels Like: 57 °F
Forecast: 53 / 59 °F
Wind: 12 mph from Southeast

Location: Haugesund / Karmoy

Current Time: Sep 30, 2014 at 4:01:11 PM

Latest Report: Sep 30, 2014 at 3:20 PM


Visibility: N/A

Pressure: 30.21 "Hg

Humidity: 77%

Dew point: 52 °F

Location of HaugesundLocation

Historic Weather in Haugesund — Graph

°F

Haugesund temperature yesterday

Maximum temperature yesterday: 59 °F (at 12:20 PM)
Minimum temperature yesterday: 45 °F (at 8:20 AM)
Average temperature yesterday: 54 °F

Past Weeks' High & Low Weather Summary

 TemperatureHumidityPressure
High72 °F (Sep 16, 1:50 PM)100% (Sep 18, 5:20 AM)30.33 "Hg (Sep 18, 5:20 AM)
Low41 °F (Sep 23, 12:20 AM)33% (Sep 16, 1:50 PM)29.59 "Hg (Sep 26, 6:50 AM)
Average56 °F76%30.00 "Hg
* Reported Sep 15 2:20 PM — Sep 30 2:50 PM, Haugesund, Weather by CustomWeather, © 2014

Note: Actual official high and low records may vary slightly from our data, if they occured in-between our weather recording intervals... More about our weather records

Advertising

Haugesund weather history for previous 24 hours

 ConditionsComfort  
Time TempWeatherWind HumidityBarometerVisibility
2:50 PM
Sep 30
61 °FBroken clouds.13 mph68%30.21 "HgN/A
2:20 PM63 °FPartly sunny.10 mph64%30.21 "HgN/A
1:50 PM63 °FPartly sunny.12 mph59%30.21 "HgN/A
1:20 PM61 °FBroken clouds.10 mph63%30.21 "HgN/A
12:50 PM61 °FSunny.12 mph63%30.21 "Hg10 mi
12:20 PM61 °FSunny.12 mph63%30.21 "Hg10 mi
11:50 AM61 °FSunny.10 mph63%30.18 "Hg10 mi
11:20 AM59 °FSunny.8 mph68%30.18 "Hg10 mi
10:50 AM59 °FPassing clouds.7 mph72%30.18 "HgN/A
10:20 AM57 °FSunny.6 mph77%30.18 "Hg10 mi
9:50 AM57 °FSunny.7 mph77%30.18 "Hg10 mi
9:20 AM55 °FSunny.9 mph82%30.18 "Hg10 mi
8:50 AM54 °FSunny.9 mph88%30.18 "Hg10 mi
8:20 AM55 °FClear.10 mph82%30.15 "Hg10 mi
7:50 AM55 °FClear.10 mph82%30.15 "Hg10 mi
7:20 AM55 °FClear.6 mph82%30.15 "Hg10 mi
6:50 AM55 °FClear.9 mph82%30.15 "Hg10 mi
6:20 AM54 °FClear.9 mph88%30.15 "Hg10 mi
5:50 AM54 °FClear.10 mph82%30.15 "Hg10 mi
5:20 AM55 °FOvercast.9 mph82%30.15 "HgN/A
4:50 AM55 °FOvercast.12 mph82%30.15 "HgN/A
4:20 AM55 °FOvercast.10 mph82%30.15 "HgN/A
3:50 AM54 °FOvercast.12 mph88%30.15 "HgN/A
3:20 AM54 °FOvercast.13 mph88%30.15 "HgN/A
2:50 AM54 °FMostly cloudy.12 mph88%30.15 "HgN/A
2:20 AM54 °FOvercast.9 mph88%30.18 "HgN/A
1:50 AM55 °FMostly cloudy.13 mph82%30.15 "HgN/A
1:20 AM55 °FOvercast.13 mph82%30.15 "HgN/A
12:50 AM55 °FOvercast.14 mph82%30.15 "HgN/A
12:20 AM55 °FOvercast.14 mph82%30.15 "HgN/A
11:50 PM
Sep 29
54 °FOvercast.10 mph88%30.15 "HgN/A
11:20 PM54 °FOvercast.8 mph82%30.15 "HgN/A
10:50 PM54 °FPassing clouds.8 mph82%30.15 "HgN/A
10:20 PM54 °FPassing clouds.8 mph77%30.18 "HgN/A
9:50 PM52 °FPartly cloudy.8 mph82%30.18 "HgN/A
9:20 PM54 °FPassing clouds.9 mph77%30.15 "HgN/A
8:50 PM54 °FPartly cloudy.8 mph72%30.15 "HgN/A
8:20 PM54 °FPassing clouds.7 mph72%30.15 "HgN/A
7:50 PM54 °FPartly sunny.6 mph77%30.15 "HgN/A
7:20 PM55 °FBroken clouds.6 mph72%30.15 "HgN/A
6:50 PM55 °FBroken clouds.6 mph72%30.15 "HgN/A
6:20 PM57 °FSunny.6 mph67%30.15 "Hg10 mi
5:50 PM57 °FSunny.6 mph63%30.15 "Hg10 mi
5:20 PM59 °FSunny.7 mph63%30.15 "Hg10 mi
4:50 PM59 °FSunny.8 mph68%30.15 "Hg10 mi
4:20 PM59 °FPartly sunny.7 mph68%30.18 "HgN/A
Weather by CustomWeather, © 2014

See weather overviewHow to use our weather pages